Regional Weather Roundup
Issued by NWS

Home | Current Version | Previous Version | Graphics & Text | Print | Product List | Glossary On
Versions: 1 2 3 4 5 6 7 8 9 10 11 12 13 14 15 16 17 18 19 20 21 22 23 24 25 26 27 28 29 30 31 32 33 34 35 36 37 38 39 40 41 42 43 44 45 46 47 48 49 50
000
ASUS43 KLSX 012059
RWRMO

WEATHER SUMMARY FOR MISSOURI
NATIONAL WEATHER SERVICE SPRINGFIELD MO
300 PM CST SUN FEB 01 2015

NOTE: "FAIR" INDICATES FEW OR NO CLOUDS BELOW 12,000 FEET WITH NO
       SIGNIFICANT WEATHER AND/OR OBSTRUCTIONS TO VISIBILITY.
       CURRENT SKY AND/OR WEATHER CONDITIONS ARE NOT AVAILABLE FOR
       CHILLICOTHE AND FARMINGTON.

MOZ001>031-035>038-043-044-053-054-012200-
...NORTHERN AND WESTERN MISSOURI...

CITY           SKY/WX    TMP DP  RH WIND       PRES   REMARKS
KANSAS CTY INT LGT SNOW  24  19  81 NW25G37   29.89R WCI   8
KANSAS C DTWN  FLURRIES  26  19  74 NW21G31   29.91R WCI  12
LEE`S SUMMIT   CLOUDY    25  20  81 NW17G30   29.89R WCI  12
ST JOSEPH      SNOW      22  19  89 N29G36    29.96R VSB 1/4 WCI   4
CHILLICOTHE      N/A     28  23  81 N20G33    29.84R WCI  15
KIRKSVILLE     LGT SNOW  27  25  92 N23G32    29.77R FOG     WCI  12

$$
MOZ066>068-077>081-088>096-101>105-012200-
...SOUTHWEST MISSOURI...

CITY           SKY/WX    TMP DP  RH WIND       PRES   REMARKS
SPRINGFIELD    CLOUDY    33  29  85 W21G32    29.83R WCI  21
JOPLIN         CLOUDY    29  23  78 NW24G31   29.96R WCI  15

$$
MOZ032>034-039>042-045>050-055>058-069>072-012200-
...CENTRAL MISSOURI...

CITY           SKY/WX    TMP DP  RH WIND       PRES   REMARKS
COLUMBIA       LGT SNOW  34  34 100 NW15G23   29.71R FOG     WCI  24
JEFFERSON CITY CLOUDY    36  33  89 W16G23    29.72R FOG     WCI  26
ROLLA          LGT RAIN  38  36  92 W20G28    29.67R WCI  28
SEDALIA        LGT SNOW  34  30  85 NW21G29   29.78R FOG     WCI  22
OSAGE BEACH    CLOUDY    36  30  80 W8G22     29.76R WCI  29

$$
MOZ051-052-059>065-012200-
...EAST CENTRAL MISSOURI...

CITY           SKY/WX    TMP DP  RH WIND       PRES   REMARKS
ST LOUIS INTL  CLOUDY    41  36  82 NW10      29.65R
SPIRIT OF STL  CLOUDY    41  36  82 W9        29.65R
ST CHARLES     CLOUDY    39  36  89 NW13      29.65R

$$
MOZ072>076-082>087-097>100-106>115-012200-
...SOUTH CENTRAL AND SOUTHEAST MISSOURI...

CITY           SKY/WX    TMP DP  RH WIND       PRES   REMARKS
CAPE GIRARDEAU CLOUDY    48  47  96 W13       29.65R
FARMINGTON     CLOUDY    45  37  76 NW9       29.67R
POPLAR BLUFF   CLOUDY    51  44  77 W12       29.66R
WEST PLAINS    CLOUDY    42  38  85 W21G30    29.71R

$$


USA.gov is the U.S. government's official web portal to all federal, state and local government web resources and services.